OBJECT E, 61231

Orbit data source: Space-Track

You're viewing an Uncataloged Satellite

Recently launched and/or uncataloged satellites may have evolving metadata. Metadata may include but not limited to: Owner, Maufacturer, Bus, Motor, and Mission.

OBJECT E, 61231 is a Chinese satellite in SSO that was launched on Tue, 24 Sep 2024 UTC via a JIELONG-3 launch vehicle from the Yellow Sea Launch Area, China (YSLA). Unknown objects in Earth's orbit typically refer to objects detected orbiting the Earth but have not yet been identified or cataloged. These objects could be anything from previously untracked satellites, spent rocket stages, debris from satellite collisions, or even natural meteoroids temporarily captured by Earth's gravity.

Loading next visibility...
OBJECT E details
Identifier
61231, 2024-173E
Orbit
SSO
Last TLE update9 hours ago
Origin
Flag of CNXGZD (CN / PRC)
ManufacturerGuoxing
MissionOperational spacecraft
Bus & MotorXSD, Unknown motor
Mass~25 kg wet, ~25 kg dry
Launch date (UTC)
2024-09-24 (3 months ago)
Launch vehicle
JIELONG-3
Launch site
Yellow Sea Launch Area, China (YSLA)
Object typeUnknown
Shape & HBRUnknown
Radar Cross SectionMedium (>0.1 m² and <1 m²)

Expand to show TLE details & history

TLE from 9 hours ago
0 OBJECT E
1 61231U 24173E   24356.15041453  .00004050  00000-0  19583-3 0  9991
2 61231  97.4118  67.5074 0001741  90.6660 269.4774 15.19171329 13310
Epoch: 2024-12-21T03:36Z
Definitive object data (Epoch: 2024-12-21T03:36:35.815Z)
Latitude-0.00003°
Longitude-76.84753°
Altitude511.444 km
Speed7.608 km/s
True Right ascension04h 30m 01s
True Declination0° 00' 00"
Sunlit
Object was in full shadow at TLE epoch
Visualization TLE readout
Latitude-55.30369°
Longitude92.74807°
Altitude530.833 km
Speed7.595 km/s
Apparent Right ascension20h 21m 21s
Apparent Declination-64° 07' 52"
Sunlit
Object is in daylight
Visualization observer readout
Local Sidereal Time11:34:44
Azimuth147.107° SSE
Elevation-53.11°
Doppler factor1
Orbital elements
Apogee altitude506.509 km
Perigee altitude504.113 km
Semi-major axis6,883.448 km
Eccentricity0.0001741
Inclination97.4118°
RAAN67.5074°
Arg. of periapsis90.666°
True anomaly269.45745°
Mean anomaly269.4774°
Eccentric anomaly269.46743°
Mean motion3.80044 °/min
BSTAR0.00019583
Orbital period94.73 mins
Loading maneuver chart data...
Loading historical data...
Loading historical data...
Loading historical data...
Loading historical data...
Loading historical data...
Loading historical data...
Loading historical data...

OBJECT E Visibility forecast

Observer location: undefined°, undefined

Span
Click to sort rows by Start time (UTC) header in descending order
Start Az.
Max El. time (UTC)
Max El. Az.
Max El.
End time (UTC)
End Az.
4 mins2024-12-21 18:24:55.027Z334.361° NNW2024-12-21 18:26:55.027Z275.348° WNW28.251°2024-12-21 18:28:55.027Z231.39° WSW
5 mins2024-12-22 05:02:55.027Z167.279° S2024-12-22 05:04:55.027Z346.821° N44.735°2024-12-22 05:07:55.027Z348.015° N
|